Вернуться в каталог

USA 200

АктивенВоенныеHEO
NORAD 32706·PAYLOAD·🇺🇸 United States

Запущен Mar 13, 2008 с Vandenberg Space Force Base

Loading…

Ближайшие Пролёты (ближайшие 24 часа)

TLE

СвежийSource: Mike McCants

Эпоха: Sep 14, 2026, 21:41 UTC

1 32706U 08010A   26257.90368145  .00000228  00000-0  00000-0 0    00
2 32706  63.4470 301.9510 7144328 268.9662  16.1203  2.00636144  5296

Отслеживайте USA 200 в реальном времени с AllMySat

Download on the App Store